[[{"header":{"parameterUnit":"m.s-1","parameterCategory":1,"la1":30.2991,"la2":30.254,"lo1":-89.0895,"lo2":-89.0444,"dy":0.0017,"dx":0.0017,"nx":28,"ny":28,"refTime":"2024-08-23T21:00:00:Z","depth":0,"parameterNumber":2,"parameterNumberName":"U-component_of_WINDS"},"data":[0,0,0,0,0,0,0,0,0,0,0,0,0,0,0,0,0,0,0,0,0,0,0,0,0,0,0,0,0,0,0,0,0,0,0,0,0,0,0,0,0,0,0,0,0,0,0,0,0,0,0,0,0,0,0,0,0,0,-5.7669,-5.7669,0,-5.7658,-5.7658,-5.7658,-5.7543,-5.754,-5.7538,-5.7535,-5.7523,-5.7526,-5.7528,0,0,0,0,0,0,0,0,0,0,0,0,0,-5.7593,-5.7595,-5.7669,-5.7669,-5.7669,-5.7658,-5.7658,-5.7658,-5.7544,-5.754,-5.7537,-5.7534,-5.7523,-5.7525,-5.7528,0,0,0,0,0,0,0,0,0,0,0,0,0,-5.7609,-5.7596,-5.7669,-5.7611,-5.7605,-5.7658,-5.7658,-5.7658,-5.7544,-5.754,-5.7536,-5.7532,-5.7522,-5.7525,-5.7529,-5.7636,0,0,-5.7539,-5.7541,0,0,0,0,0,0,0,0,-5.7608,-5.7611,-5.762,-5.7615,-5.7609,-5.7598,-5.7627,-5.765,-5.7546,-5.7568,-5.7535,-5.753,-5.7552,-5.7552,-5.756,-5.7636,-5.7635,-5.754,-5.7542,-5.7543,-5.7544,0,0,0,0,0,0,0,-5.7607,-5.7611,-5.7665,-5.762,-5.7613,-5.7585,-5.7583,-5.7631,-5.7584,-5.7565,-5.7557,-5.7557,-5.7548,-5.7556,-5.7558,-5.7635,-5.754,-5.7543,-5.7545,-5.7546,-5.7799,-5.7803,0,0,0,0,0,0,-5.7614,-5.7611,-5.7665,-5.7664,-5.7598,-5.759,-5.7587,-5.7606,-5.7583,-5.7575,-5.7561,-5.7552,-5.7553,-5.7554,-5.7558,-5.7681,-5.7543,-5.7547,-5.7549,-5.7794,-5.78,-5.7805,0,0,0,0,0,0,-5.7613,-5.762,-5.7665,-5.7636,-5.7639,-5.7596,-5.7618,-5.7608,-5.7616,-5.758,-5.7571,-5.7578,-5.7549,-5.7553,-5.7617,-5.7679,-5.7548,-5.7551,-5.7789,-5.7796,-5.7802,-5.7929,0,0,0,0,0,0,-5.7611,-5.762,-5.766,-5.7637,-5.7641,-5.7725,-5.7621,-5.7611,-5.7622,-5.7611,-5.7593,-5.7586,-5.7546,-5.7613,-5.7621,-5.7681,-5.7554,-5.7783,-5.7792,-5.78,-5.7919,-5.794,-5.7957,0,0,0,0,0,-5.7609,-5.7696,-5.7663,-5.767,-5.769,-5.7729,-5.7731,-5.7683,-5.7628,-5.7668,-5.7645,-5.7587,-5.7672,-5.762,-5.7629,-5.7691,-5.7779,-5.779,-5.78,-5.7911,-5.7936,-5.7957,0,0,0,0,0,0,-5.7726,-5.7692,-5.7654,-5.7737,-5.7737,-5.771,-5.7758,-5.7711,-5.7726,-5.7714,-5.7654,-5.7652,-5.7725,-5.7715,-5.7658,-5.7794,-5.7716,-5.7728,-5.7797,-5.7821,-5.7839,-5.7838,-5.7557,0,0,0,0,0,-5.7762,-5.7796,-5.7765,-5.7841,-5.7843,-5.7801,-5.7816,-5.778,-5.7777,-5.7776,-5.7757,-5.7757,-5.7784,-5.7802,-5.7825,-5.7919,-5.7913,-5.7966,-5.7985,-5.8001,-5.8011,-5.8059,-5.8082,-5.7839,-5.7839,-5.7839,0,0,-5.7836,-5.7821,-5.7846,-5.7864,-5.7859,-5.7896,-5.7802,-5.7844,-5.7871,-5.7782,-5.7841,-5.7829,-5.7825,-5.7905,-5.7939,-5.7899,-5.8078,-5.8014,-5.8027,-5.8028,-5.8072,-5.8095,-5.8116,-5.7846,-5.7845,-5.7843,0,0,-5.7988,-5.7981,-5.8043,-5.8041,-5.8036,-5.8008,-5.8024,-5.8005,-5.7992,-5.8052,-5.7986,-5.8018,-5.8065,-5.8064,-5.807,-5.8226,-5.8173,-5.8236,-5.8332,-5.838,-5.8399,-5.8416,-5.847,-5.849,-5.8247,-5.8247,-5.8248,0,-5.8079,-5.8132,-5.8081,-5.8128,-5.8138,-5.8061,-5.8124,-5.8124,-5.8127,-5.8136,-5.8091,-5.8149,-5.8141,-5.8219,-5.8257,-5.8266,-5.8281,-5.8235,-5.8401,-5.8417,-5.8432,-5.8482,-5.8503,-5.8255,-5.8254,-5.8253,-5.8252,0,-5.8244,-5.8282,-5.8333,-5.8337,-5.8353,-5.8408,-5.8366,-5.8389,-5.8352,-5.833,-5.8391,-5.838,-5.8398,-5.8415,-5.8379,-5.8489,-5.8463,-5.8412,-5.833,-5.8463,-5.8509,-5.8528,-5.8265,-5.8263,-5.826,-5.8259,0,0,-5.8465,-5.8443,-5.8463,-5.8464,-5.8454,-5.8482,-5.8535,-5.8554,-5.8573,-5.858,-5.8621,-5.8664,-5.8616,-5.8623,-5.8587,-5.863,-5.8752,-5.8572,-5.8571,-5.8603,-5.887,-5.8907,-5.893,-5.8719,-5.8723,-5.8726,-5.887,0,-5.8609,-5.8696,-5.8653,-5.8745,-5.8779,-5.8709,-5.8754,-5.8754,-5.8735,-5.8761,-5.8741,-5.8772,-5.8707,-5.8711,-5.875,-5.8729,-5.8804,-5.8719,-5.8755,-5.8757,-5.8755,-5.8955,-5.8993,-5.913,-5.8888,-5.8891,-5.8893,0,-5.8787,-5.8801,-5.8896,-5.8881,-5.8894,-5.8936,-5.8949,-5.8976,-5.8975,-5.8958,-5.8968,-5.8923,-5.8974,-5.8897,-5.8965,-5.8908,-5.8922,-5.8914,-5.8918,-5.8916,-5.883,-5.8955,-5.9172,-5.9192,-5.8921,-5.8919,-5.8917,0,-5.8936,-5.8979,-5.9041,-5.9045,-5.9029,-5.906,-5.9055,-5.905,-5.9064,-5.9077,-5.9086,-5.9105,-5.9115,-5.9131,-5.9093,-5.9041,-5.9166,-5.9087,-5.9153,-5.9154,-5.9178,-5.9177,-5.9397,-5.9194,-5.9194,-5.9193,-5.9193,0,-5.9099,-5.9159,-5.9107,-5.9145,-5.9211,-5.9163,-5.923,-5.9218,-5.9214,-5.9249,-5.9191,-5.9224,-5.9173,-5.9203,-5.9174,-5.9234,-5.924,-5.9227,-5.9218,-5.923,-5.9231,-5.9235,-5.9223,-5.9199,-5.9197,-5.9196,-5.9195,0,-5.9274,-5.9242,-5.9304,-5.9286,-5.9283,-5.9332,-5.9316,-5.935,-5.933,-5.9374,-5.9382,-5.9349,-5.938,-5.9345,-5.9373,-5.9354,-5.9435,-5.9413,-5.9435,-5.9427,-5.9494,-5.9487,-5.9721,-5.9749,-5.9532,-5.9534,-5.9536,0,-5.9378,-5.9422,-5.9409,-5.9428,-5.9427,-5.9459,-5.9473,-5.943,-5.9447,-5.945,-5.9485,-5.9511,-5.9529,-5.9583,-5.9561,-5.9583,-5.956,-5.9641,-5.9563,-5.9574,-5.9558,-5.9554,-5.9558,-5.9655,-5.9658,-5.966,-5.9662,0,-5.9565,-5.9548,-5.9571,-5.9589,-5.9609,-5.9621,-5.9629,-5.9648,-5.9603,-5.9626,-5.9657,-5.9672,-5.9702,-5.9728,-5.9745,-5.974,-5.9693,-5.9688,-5.9703,-5.9714,-5.9724,-5.9717,-5.9474,-5.9681,-5.9679,-5.9678,-5.9677,-5.9676,-5.9705,-5.9742,-5.9738,-5.9767,-5.9769,-5.9778,-5.9809,-5.9793,-5.9819,-5.9839,-5.9813,-5.9851,-5.985,-5.9867,-5.9868,-5.9898,-5.9863,-5.9887,-5.9893,-5.9898,-5.9907,-5.9723,-5.9902,-5.9901,-5.99,-5.99,-5.9899,0,-5.9887,-5.9882,-5.9909,-5.9922,-5.9945,-5.9902,-5.9909,-5.993,-5.9965,-5.9969,-5.9989,-6.0025,-6.0052,-6.0034,-6.0056,-6.0084,-6.0063,-6.0091,-6.0086,-6.0086,-5.9938,-5.992,-6.0107,-6.0107,-6.0107,-6.0107,-6.0107,-6.0107,-5.9984,-6.0043,-6.0026,-6.0086,-6.0081,-6.0118,-6.0126,-6.0134,-6.0137,-6.018,-6.0202,-6.0191,-6.0186,-6.0208,-6.023,-6.0224,-6.0234,-6.0269,-6.0255,-6.0117,-6.0096,-6.0077,-6.006,-6.0272,-6.0273,-6.04,-6.0401,-6.0402]},{"header":{"parameterUnit":"m.s-1","parameterCategory":1,"la1":30.2991,"la2":30.254,"lo1":-89.0895,"lo2":-89.0444,"dy":0.0017,"dx":0.0017,"nx":28,"ny":28,"refTime":"2024-08-23T21:00:00:Z","depth":0,"parameterNumber":3,"parameterNumberName":"V-component_of_WINDS"},"data":[0,0,0,0,0,0,0,0,0,0,0,0,0,0,0,0,0,0,0,0,0,0,0,0,0,0,0,0,0,0,0,0,0,0,0,0,0,0,0,0,0,0,0,0,0,0,0,0,0,0,0,0,0,0,0,0,0,0,2.9949,2.9949,0,2.9989,2.9989,2.9989,3.0043,3.0044,3.0044,3.0045,3.008,3.0081,3.0081,0,0,0,0,0,0,0,0,0,0,0,0,0,2.9915,2.9916,2.9949,2.9949,2.995,2.9988,2.9989,2.999,3.0042,3.0044,3.0045,3.0046,3.008,3.0081,3.0081,0,0,0,0,0,0,0,0,0,0,0,0,0,2.994,2.9916,2.9949,2.9981,2.9984,2.9988,2.9989,2.999,3.0042,3.0044,3.0045,3.0046,3.008,3.008,3.0081,3.0054,0,0,3.0081,3.0081,0,0,0,0,0,0,0,0,2.9938,2.9941,2.9976,2.9979,2.9983,3.0012,2.999,3.0011,3.0042,3.002,3.0045,3.0047,3.0056,3.0058,3.0063,3.0056,3.0058,3.0081,3.0081,3.0081,3.0081,0,0,0,0,0,0,0,2.9937,2.994,2.9964,2.9976,2.998,2.9992,2.9997,2.9994,3.003,3.0022,3.0026,3.003,3.0058,3.0062,3.0064,3.0058,3.0081,3.0081,3.0081,3.0081,3.0033,3.0032,0,0,0,0,0,0,2.9931,2.9938,2.9963,2.9966,2.9964,2.9992,2.9997,3.0001,3.003,3.0036,3.0029,3.0033,3.0062,3.0064,3.0065,3.0038,3.0081,3.0081,3.0081,3.0035,3.0033,3.0032,0,0,0,0,0,0,2.993,2.9932,2.9962,2.9953,2.9958,2.9991,2.9995,3.0001,3.0006,3.0036,3.0042,3.0027,3.0063,3.0065,3.0058,3.0039,3.0081,3.0082,3.0036,3.0034,3.0032,2.9981,0,0,0,0,0,0,2.9929,2.9932,2.9923,2.9952,2.9958,2.9954,2.9994,3.0001,3.0006,3.0011,3.0035,3.004,3.0064,3.0057,3.0058,3.004,3.0082,3.0038,3.0035,3.0033,2.9984,2.9977,2.9971,0,0,0,0,0,2.9927,2.9905,2.9922,2.9925,2.9948,2.9953,2.9956,2.9985,3.0005,2.9995,3.0015,3.004,3.0042,3.0056,3.0057,3.0039,3.0039,3.0036,3.0033,2.9987,2.9979,2.9971,0,0,0,0,0,0,2.987,2.9909,2.9929,2.9916,2.9931,2.9962,2.9951,2.9974,2.9983,2.9987,3.0021,3.0026,3.0014,3.0026,3.0041,3.0016,3.0044,3.0041,3.0009,3.0001,2.9995,2.9991,3.0082,0,0,0,0,0,2.9857,2.9859,2.9893,2.9878,2.9885,2.9916,2.992,2.9941,2.9957,2.9963,2.9982,2.9996,3.0,3.0001,3.0006,2.9987,2.9993,2.9975,2.9969,2.9963,2.996,2.9952,2.9944,3.0022,3.0022,3.0022,0,0,2.9827,2.9849,2.9848,2.9867,2.9881,2.9882,2.9921,2.992,2.992,2.9962,2.9957,2.9972,2.9989,2.9976,2.9971,2.9985,2.994,2.9959,2.9955,2.9955,2.9948,2.994,2.9934,3.002,3.002,3.002,0,0,2.9775,2.9792,2.9782,2.9796,2.9818,2.984,2.9838,2.9866,2.9877,2.9873,2.9905,2.9906,2.9911,2.9923,2.9929,2.9884,2.9907,2.9884,2.985,2.9841,2.9835,2.983,2.9814,2.9808,2.9881,2.9881,2.9881,0,2.9735,2.9739,2.9773,2.9771,2.9778,2.9819,2.981,2.9821,2.9842,2.9846,2.9863,2.9872,2.9886,2.9877,2.9866,2.987,2.9868,2.9881,2.9834,2.9829,2.9824,2.9809,2.9803,2.9878,2.9879,2.9879,2.9879,0,2.969,2.9692,2.9681,2.9704,2.971,2.9703,2.9736,2.9738,2.976,2.978,2.9775,2.9794,2.9804,2.9804,2.9824,2.9797,2.9806,2.9828,2.9856,2.9813,2.98,2.9794,2.9874,2.9875,2.9876,2.9877,0,0,2.96,2.9644,2.9639,2.9651,2.9679,2.9681,2.9677,2.9689,2.969,2.9704,2.9701,2.9706,2.9727,2.9734,2.9756,2.9749,2.9712,2.9771,2.9772,2.976,2.9684,2.9668,2.9661,2.9728,2.9727,2.9726,2.9683,0,2.9553,2.9549,2.9581,2.9569,2.9572,2.9612,2.9608,2.9624,2.9643,2.9647,2.9667,2.9671,2.9698,2.9703,2.9697,2.9718,2.9697,2.9721,2.9724,2.9724,2.9718,2.9653,2.9635,2.9594,2.9678,2.9677,2.9676,0,2.9496,2.951,2.9499,2.9529,2.9532,2.9528,2.9543,2.9546,2.9566,2.958,2.959,2.9616,2.9613,2.9641,2.9637,2.9653,2.9656,2.9667,2.9666,2.9666,2.9697,2.9652,2.9581,2.9574,2.9668,2.9669,2.967,0,2.9433,2.9448,2.9444,2.9452,2.9488,2.9484,2.9498,2.952,2.9526,2.9538,2.9542,2.9553,2.9559,2.9567,2.9595,2.9613,2.9588,2.9618,2.9599,2.9598,2.9591,2.9591,2.9519,2.9593,2.9593,2.9594,2.9594,0,2.9376,2.9367,2.9416,2.9413,2.9404,2.9441,2.9431,2.9449,2.9468,2.9469,2.9504,2.9503,2.9541,2.9544,2.9566,2.956,2.9562,2.9573,2.9579,2.957,2.9568,2.9572,2.9575,2.9592,2.9592,2.9593,2.9593,0,2.9303,2.9335,2.9333,2.9368,2.9377,2.9369,2.9398,2.9396,2.9419,2.9419,2.9421,2.9455,2.9461,2.949,2.9502,2.9517,2.9503,2.9515,2.9497,2.9501,2.948,2.9482,2.9407,2.94,2.9479,2.9478,2.9478,0,2.9264,2.9259,2.9295,2.9299,2.9312,2.9318,2.9325,2.9361,2.9367,2.939,2.9385,2.9395,2.9405,2.9412,2.9437,2.9447,2.9459,2.9432,2.946,2.9452,2.9459,2.9458,2.9458,2.9426,2.9425,2.9424,2.9423,0,2.9193,2.921,2.922,2.9236,2.9244,2.9257,2.9273,2.9274,2.9314,2.9318,2.9327,2.9334,2.9348,2.9357,2.9372,2.9385,2.941,2.9415,2.9411,2.9401,2.9391,2.9396,2.9481,2.9416,2.9417,2.9417,2.9417,2.9418,2.9136,2.9134,2.9159,2.9169,2.9186,2.92,2.9201,2.9224,2.9232,2.9248,2.9268,2.9274,2.9294,2.9317,2.9329,2.9333,2.9347,2.9341,2.9339,2.9337,2.9333,2.9391,2.9335,2.9335,2.9336,2.9336,2.9336,0,2.9067,2.9086,2.9095,2.9117,2.9125,2.9151,2.917,2.9174,2.918,2.9198,2.9207,2.9217,2.9226,2.9253,2.9264,2.9262,2.9274,2.9264,2.9264,2.9267,2.9319,2.9322,2.9254,2.9254,2.9254,2.9254,2.9254,2.9255,2.9032,2.903,2.905,2.9056,2.9075,2.9082,2.9091,2.9104,2.9119,2.9129,2.9138,2.9156,2.9177,2.9191,2.9201,2.9208,2.9211,2.9196,2.9208,2.9256,2.9263,2.9271,2.9273,2.9197,2.9197,2.9155,2.9155,2.9154]}]]